Time,TemperatureF,DewpointF,PressureIn,WindDirection,WindDirectionDegrees,WindSpeedMPH,WindSpeedGustMPH,Humidity,HourlyPrecipIn,Conditions,Clouds,dailyrainin,SoftwareType,DateUTC
2013-04-06 00:00:00,40.1,20.0,30.01,WSW,257,5.0,14.0,44,0.00,,---,0.00,VWS V14.01,2013-04-06 04:00:00,
2013-04-06 00:05:00,40.1,20.0,30.02,WNW,300,3.0,10.0,44,0.00,,---,0.00,VWS V14.01,2013-04-06 04:05:00,
2013-04-06 00:10:00,40.0,19.9,30.02,WNW,291,8.0,10.0,44,0.00,,---,0.00,VWS V14.01,2013-04-06 04:10:00,
2013-04-06 00:15:00,39.8,19.7,30.02,WNW,287,6.0,12.0,44,0.00,,---,0.00,VWS V14.01,2013-04-06 04:15:00,
2013-04-06 00:20:00,39.7,19.6,30.03,West,259,2.0,14.0,44,0.00,,---,0.00,VWS V14.01,2013-04-06 04:20:00,
2013-04-06 00:25:00,39.6,19.0,30.02,NE,55,9.0,14.0,43,0.00,,---,0.00,VWS V14.01,2013-04-06 04:25:00,
2013-04-06 00:30:00,39.5,18.9,30.02,NNE,30,4.0,14.0,43,0.00,,---,0.00,VWS V14.01,2013-04-06 04:30:00,
2013-04-06 00:35:00,39.3,18.7,30.03,NNW,332,3.0,12.0,43,0.00,,---,0.00,VWS V14.01,2013-04-06 04:35:00,
2013-04-06 00:40:00,39.2,19.1,30.03,NW,317,5.0,15.0,44,0.00,,---,0.00,VWS V14.01,2013-04-06 04:40:00,
2013-04-06 00:45:00,39.1,18.5,30.03,NE,36,4.0,19.0,43,0.00,,---,0.00,VWS V14.01,2013-04-06 04:45:00,
2013-04-06 00:50:00,38.9,18.3,30.04,WNW,302,2.0,19.0,43,0.00,,---,0.00,VWS V14.01,2013-04-06 04:50:00,
2013-04-06 00:55:00,38.8,18.8,30.04,NNE,25,7.0,19.0,44,0.00,,---,0.00,VWS V14.01,2013-04-06 04:55:00,
2013-04-06 01:00:00,38.7,18.7,30.04,NNW,327,6.0,19.0,44,0.00,,---,0.00,VWS V14.01,2013-04-06 05:00:00,
2013-04-06 01:05:00,38.6,19.1,30.04,WNW,282,8.0,15.0,45,0.00,,---,0.00,VWS V14.01,2013-04-06 05:05:00,
2013-04-06 01:10:00,38.5,19.0,30.05,NW,322,1.0,15.0,45,0.00,,---,0.00,VWS V14.01,2013-04-06 05:10:00,
2013-04-06 01:15:00,38.4,19.4,30.05,East,93,2.0,15.0,46,0.00,,---,0.00,VWS V14.01,2013-04-06 05:15:00,
2013-04-06 01:20:00,38.3,18.8,30.05,NNE,23,6.0,15.0,45,0.00,,---,0.00,VWS V14.01,2013-04-06 05:20:00,
2013-04-06 01:25:00,38.1,19.2,30.06,NNE,25,7.0,15.0,46,0.00,,---,0.00,VWS V14.01,2013-04-06 05:25:00,
2013-04-06 01:30:00,38.1,18.1,30.06,West,278,6.0,18.0,44,0.00,,---,0.00,VWS V14.01,2013-04-06 05:30:00,
2013-04-06 01:35:00,38.0,18.0,30.06,NW,321,4.0,16.0,44,0.00,,---,0.00,VWS V14.01,2013-04-06 05:35:00,
2013-04-06 01:40:00,37.9,17.4,30.06,NE,37,10.0,16.0,43,0.00,,---,0.00,VWS V14.01,2013-04-06 05:40:00,
2013-04-06 01:45:00,37.9,18.0,30.06,NNE,27,2.0,16.0,44,0.00,,---,0.00,VWS V14.01,2013-04-06 05:45:00,
2013-04-06 01:50:00,37.7,17.2,30.06,NW,305,8.0,16.0,43,0.00,,---,0.00,VWS V14.01,2013-04-06 05:50:00,
2013-04-06 01:55:00,37.6,17.1,30.06,NNE,18,6.0,16.0,43,0.00,,---,0.00,VWS V14.01,2013-04-06 05:55:00,
2013-04-06 02:00:00,37.5,16.5,30.07,NNE,25,6.0,16.0,42,0.00,,---,0.00,VWS V14.01,2013-04-06 06:00:00,
2013-04-06 02:05:00,37.4,15.9,30.07,North,4,5.0,9.0,41,0.00,,---,0.00,VWS V14.01,2013-04-06 06:05:00,
2013-04-06 02:10:00,37.2,15.7,30.07,NNE,15,4.0,14.0,41,0.00,,---,0.00,VWS V14.01,2013-04-06 06:10:00,
2013-04-06 02:15:00,37.1,16.1,30.07,NNW,346,2.0,14.0,42,0.00,,---,0.00,VWS V14.01,2013-04-06 06:15:00,
2013-04-06 02:20:00,37.0,16.1,30.07,North,356,2.0,14.0,42,0.00,,---,0.00,VWS V14.01,2013-04-06 06:20:00,
2013-04-06 02:25:00,36.8,15.9,30.07,North,1,2.0,14.0,42,0.00,,---,0.00,VWS V14.01,2013-04-06 06:25:00,
2013-04-06 02:30:00,36.7,15.2,30.07,NNW,343,1.0,14.0,41,0.00,,---,0.00,VWS V14.01,2013-04-06 06:30:00,
2013-04-06 02:35:00,36.6,15.1,30.07,WNW,282,3.0,6.0,41,0.00,,---,0.00,VWS V14.01,2013-04-06 06:35:00,
2013-04-06 02:40:00,36.4,15.0,30.08,NW,319,3.0,9.0,41,0.00,,---,0.00,VWS V14.01,2013-04-06 06:40:00,
2013-04-06 02:45:00,36.4,15.5,30.08,WNW,290,3.0,9.0,42,0.00,,---,0.00,VWS V14.01,2013-04-06 06:45:00,
2013-04-06 02:50:00,36.3,15.4,30.08,NW,305,5.0,9.0,42,0.00,,---,0.00,VWS V14.01,2013-04-06 06:50:00,
2013-04-06 02:55:00,36.2,15.3,30.08,North,6,5.0,11.0,42,0.00,,---,0.00,VWS V14.01,2013-04-06 06:55:00,
2013-04-06 03:00:00,36.1,15.2,30.08,NNW,339,4.0,11.0,42,0.00,,---,0.00,VWS V14.01,2013-04-06 07:00:00,
2013-04-06 03:05:00,36.0,15.7,30.08,NW,317,6.0,12.0,43,0.00,,---,0.00,VWS V14.01,2013-04-06 07:05:00,
2013-04-06 03:10:00,36.0,16.2,30.08,NNW,336,3.0,12.0,44,0.00,,---,0.00,VWS V14.01,2013-04-06 07:10:00,
2013-04-06 03:15:00,35.9,16.6,30.09,North,359,5.0,12.0,45,0.00,,---,0.00,VWS V14.01,2013-04-06 07:15:00,
2013-04-06 03:20:00,35.8,16.5,30.09,NE,37,6.0,12.0,45,0.00,,---,0.00,VWS V14.01,2013-04-06 07:20:00,
2013-04-06 03:25:00,35.7,16.5,30.09,WNW,287,5.0,12.0,45,0.00,,---,0.00,VWS V14.01,2013-04-06 07:25:00,
2013-04-06 03:30:00,35.6,17.4,30.09,North,357,3.0,12.0,47,0.00,,---,0.00,VWS V14.01,2013-04-06 07:30:00,
2013-04-06 03:35:00,35.5,16.8,30.09,NNW,347,5.0,8.0,46,0.00,,---,0.00,VWS V14.01,2013-04-06 07:35:00,
2013-04-06 03:40:00,35.5,17.3,30.09,NE,50,5.0,11.0,47,0.00,,---,0.00,VWS V14.01,2013-04-06 07:40:00,
2013-04-06 03:46:00,35.3,17.6,30.10,NNW,332,6.0,11.0,48,0.00,,---,0.00,VWS V14.01,2013-04-06 07:46:00,
2013-04-06 03:51:00,35.3,17.1,30.11,WNW,301,5.0,11.0,47,0.00,,---,0.00,VWS V14.01,2013-04-06 07:51:00,
2013-04-06 03:56:00,35.2,17.5,30.10,WSW,256,6.0,11.0,48,0.00,,---,0.00,VWS V14.01,2013-04-06 07:56:00,
2013-04-06 04:01:00,35.1,17.9,30.11,NNW,347,6.0,11.0,49,0.00,,---,0.00,VWS V14.01,2013-04-06 08:01:00,
2013-04-06 04:06:00,35.1,17.9,30.11,NNW,340,3.0,16.0,49,0.00,,---,0.00,VWS V14.01,2013-04-06 08:06:00,
2013-04-06 04:11:00,34.9,18.2,30.11,NW,309,4.0,16.0,50,0.00,,---,0.00,VWS V14.01,2013-04-06 08:11:00,
2013-04-06 04:16:00,34.8,18.1,30.11,NNW,335,3.0,16.0,50,0.00,,---,0.00,VWS V14.01,2013-04-06 08:16:00,
2013-04-06 04:21:00,34.8,18.1,30.11,WNW,294,6.0,16.0,50,0.00,,---,0.00,VWS V14.01,2013-04-06 08:21:00,
2013-04-06 04:26:00,34.7,18.0,30.12,WSW,250,6.0,16.0,50,0.00,,---,0.00,VWS V14.01,2013-04-06 08:26:00,
2013-04-06 04:30:00,34.7,18.0,30.12,NNW,343,3.0,16.0,50,0.00,,---,0.00,VWS V14.01,2013-04-06 08:30:00,
2013-04-06 04:31:00,34.7,18.0,30.12,NNW,343,3.0,16.0,50,0.00,,---,0.00,VWS V14.01,2013-04-06 08:31:00,
2013-04-06 04:36:00,34.6,18.3,30.12,NNW,333,3.0,10.0,51,0.00,,---,0.00,VWS V14.01,2013-04-06 08:36:00,
2013-04-06 04:41:00,34.5,18.7,30.12,WNW,295,4.0,10.0,52,0.00,,---,0.00,VWS V14.01,2013-04-06 08:41:00,
2013-04-06 04:46:00,34.4,18.6,30.13,West,270,6.0,10.0,52,0.00,,---,0.00,VWS V14.01,2013-04-06 08:46:00,
2013-04-06 04:51:00,34.3,19.0,30.13,NNW,347,3.0,10.0,53,0.00,,---,0.00,VWS V14.01,2013-04-06 08:51:00,
2013-04-06 04:56:00,34.2,18.4,30.13,SW,232,5.0,10.0,52,0.00,,---,0.00,VWS V14.01,2013-04-06 08:56:00,
2013-04-06 05:00:00,34.1,18.3,30.13,West,267,4.0,10.0,52,0.00,,---,0.00,VWS V14.01,2013-04-06 09:00:00,
2013-04-06 05:06:00,34.1,18.8,30.13,NW,320,2.0,8.0,53,0.00,,---,0.00,VWS V14.01,2013-04-06 09:06:00,
2013-04-06 05:11:00,33.9,18.6,30.14,NE,51,2.0,8.0,53,0.00,,---,0.00,VWS V14.01,2013-04-06 09:11:00,
2013-04-06 05:16:00,33.8,18.9,30.14,ENE,61,2.0,8.0,54,0.00,,---,0.00,VWS V14.01,2013-04-06 09:16:00,
2013-04-06 05:20:00,33.7,18.8,30.14,West,276,3.0,8.0,54,0.00,,---,0.00,VWS V14.01,2013-04-06 09:20:00,
2013-04-06 05:26:00,33.6,18.7,30.15,NNW,340,2.0,8.0,54,0.00,,---,0.00,VWS V14.01,2013-04-06 09:26:00,
2013-04-06 05:31:00,33.6,19.6,30.15,North,6,1.0,1.0,56,0.00,,---,0.00,VWS V14.01,2013-04-06 09:31:00,
2013-04-06 05:36:00,33.6,19.6,30.15,West,278,2.0,4.0,56,0.00,,---,0.00,VWS V14.01,2013-04-06 09:36:00,
2013-04-06 05:41:00,33.5,19.1,30.15,WNW,290,4.0,5.0,55,0.00,,---,0.00,VWS V14.01,2013-04-06 09:41:00,
2013-04-06 05:46:00,33.4,19.4,30.15,West,280,0.0,5.0,56,0.00,,---,0.00,VWS V14.01,2013-04-06 09:46:00,
2013-04-06 05:51:00,33.4,19.0,30.16,WNW,288,2.0,7.0,55,0.00,,---,0.00,VWS V14.01,2013-04-06 09:51:00,
2013-04-06 05:56:00,33.4,19.4,30.16,NNW,345,3.0,7.0,56,0.00,,---,0.00,VWS V14.01,2013-04-06 09:56:00,
2013-04-06 06:01:00,33.4,19.0,30.16,NNW,344,2.0,2.0,55,0.00,,---,0.00,VWS V14.01,2013-04-06 10:01:00,
2013-04-06 06:06:00,33.4,19.4,30.17,NNW,337,2.0,4.0,56,0.00,,---,0.00,VWS V14.01,2013-04-06 10:06:00,
2013-04-06 06:11:00,33.3,19.3,30.17,West,277,3.0,4.0,56,0.00,,---,0.00,VWS V14.01,2013-04-06 10:11:00,
2013-04-06 06:16:00,33.3,19.3,30.17,NE,36,2.0,7.0,56,0.00,,---,0.00,VWS V14.01,2013-04-06 10:16:00,
2013-04-06 06:21:00,33.3,19.7,30.18,WNW,294,1.0,7.0,57,0.00,,---,0.00,VWS V14.01,2013-04-06 10:21:00,
2013-04-06 06:26:00,33.1,19.5,30.18,NW,323,1.0,7.0,57,0.00,,---,0.00,VWS V14.01,2013-04-06 10:26:00,
2013-04-06 06:30:00,33.2,19.6,30.18,NW,312,3.0,9.0,57,0.00,,---,0.00,VWS V14.01,2013-04-06 10:30:00,
2013-04-06 06:32:00,33.2,19.6,30.18,NW,317,2.0,4.0,57,0.00,,---,0.00,VWS V14.01,2013-04-06 10:32:00,
2013-04-06 06:37:00,33.1,19.9,30.19,North,10,2.0,4.0,58,0.00,,---,0.00,VWS V14.01,2013-04-06 10:37:00,
2013-04-06 06:42:00,33.1,19.9,30.19,North,8,2.0,5.0,58,0.00,,---,0.00,VWS V14.01,2013-04-06 10:42:00,
2013-04-06 06:47:00,33.1,19.9,30.19,NE,41,0.0,5.0,58,0.00,,---,0.00,VWS V14.01,2013-04-06 10:47:00,
2013-04-06 06:52:00,33.1,19.9,30.19,NE,43,4.0,5.0,58,0.00,,---,0.00,VWS V14.01,2013-04-06 10:52:00,
2013-04-06 06:57:00,33.2,20.8,30.20,NNE,25,0.0,6.0,60,0.00,,---,0.00,VWS V14.01,2013-04-06 10:57:00,
2013-04-06 07:00:00,33.3,20.1,30.20,NNE,33,4.0,6.0,58,0.00,,---,0.00,VWS V14.01,2013-04-06 11:00:00,
2013-04-06 07:02:00,33.3,20.1,30.20,NNW,335,2.0,4.0,58,0.00,,---,0.00,VWS V14.01,2013-04-06 11:02:00,
2013-04-06 07:07:00,33.4,19.8,30.20,NW,316,3.0,5.0,57,0.00,,---,0.00,VWS V14.01,2013-04-06 11:07:00,
2013-04-06 07:12:00,33.5,19.5,30.21,NE,36,4.0,5.0,56,0.00,,---,0.00,VWS V14.01,2013-04-06 11:12:00,
2013-04-06 07:17:00,33.6,18.3,30.21,SW,228,1.0,11.0,53,0.00,,---,0.00,VWS V14.01,2013-04-06 11:17:00,
2013-04-06 07:22:00,33.9,17.2,30.22,NE,36,6.0,13.0,50,0.00,,---,0.00,VWS V14.01,2013-04-06 11:22:00,
2013-04-06 07:27:00,34.1,15.5,30.22,NNE,21,5.0,13.0,46,0.00,,---,0.00,VWS V14.01,2013-04-06 11:27:00,
2013-04-06 07:32:00,34.3,14.7,30.22,North,1,5.0,10.0,44,0.00,,---,0.00,VWS V14.01,2013-04-06 11:32:00,
2013-04-06 07:33:00,34.4,14.8,30.22,West,278,1.0,10.0,44,0.00,,---,0.00,VWS V14.01,2013-04-06 11:33:00,
2013-04-06 07:38:00,34.5,14.9,30.23,North,354,3.0,10.0,44,0.00,,---,0.00,VWS V14.01,2013-04-06 11:38:00,
2013-04-06 07:43:00,34.6,13.9,30.23,NE,49,5.0,10.0,42,0.00,,---,0.00,VWS V14.01,2013-04-06 11:43:00,
2013-04-06 07:48:00,34.6,13.9,30.24,NE,36,8.0,10.0,42,0.00,,---,0.00,VWS V14.01,2013-04-06 11:48:00,
2013-04-06 07:53:00,34.6,13.9,30.24,NNE,31,1.0,12.0,42,0.00,,---,0.00,VWS V14.01,2013-04-06 11:53:00,
2013-04-06 07:58:00,34.7,14.0,30.24,NNW,333,6.0,12.0,42,0.00,,---,0.00,VWS V14.01,2013-04-06 11:58:00,
2013-04-06 08:00:00,34.7,14.0,30.24,NNE,26,11.0,12.0,42,0.00,,---,0.00,VWS V14.01,2013-04-06 12:00:00,
2013-04-06 08:03:00,34.7,13.4,30.25,NE,34,7.0,15.0,41,0.00,,---,0.00,VWS V14.01,2013-04-06 12:03:00,
2013-04-06 08:08:00,34.7,12.9,30.25,NW,305,7.0,15.0,40,0.00,,---,0.00,VWS V14.01,2013-04-06 12:08:00,
2013-04-06 08:13:00,35.0,13.7,30.25,NNE,31,9.0,16.0,41,0.00,,---,0.00,VWS V14.01,2013-04-06 12:13:00,
2013-04-06 08:18:00,35.1,15.4,30.25,NE,55,6.0,16.0,44,0.00,,---,0.00,VWS V14.01,2013-04-06 12:18:00,
2013-04-06 08:23:00,35.2,13.9,30.25,NE,49,8.0,16.0,41,0.00,,---,0.00,VWS V14.01,2013-04-06 12:23:00,
2013-04-06 08:28:00,35.0,12.6,30.25,NNE,18,7.0,16.0,39,0.00,,---,0.00,VWS V14.01,2013-04-06 12:28:00,
2013-04-06 08:30:00,35.1,12.6,30.25,NE,51,7.0,16.0,39,0.00,,---,0.00,VWS V14.01,2013-04-06 12:30:00,
2013-04-06 08:33:00,35.1,13.2,30.25,NW,322,4.0,11.0,40,0.00,,---,0.00,VWS V14.01,2013-04-06 12:33:00,
2013-04-06 08:38:00,35.3,12.2,30.25,North,352,10.0,11.0,38,0.00,,---,0.00,VWS V14.01,2013-04-06 12:38:00,
2013-04-06 08:43:00,35.3,12.8,30.25,NE,37,11.0,11.0,39,0.00,,---,0.00,VWS V14.01,2013-04-06 12:43:00,
2013-04-06 08:48:00,35.6,12.5,30.26,NW,318,5.0,11.0,38,0.00,,---,0.00,VWS V14.01,2013-04-06 12:48:00,
2013-04-06 08:53:00,35.7,12.6,30.26,NNE,31,7.0,11.0,38,0.00,,---,0.00,VWS V14.01,2013-04-06 12:53:00,
2013-04-06 08:58:00,35.9,12.8,30.26,NNE,33,8.0,11.0,38,0.00,,---,0.00,VWS V14.01,2013-04-06 12:58:00,
2013-04-06 09:00:00,35.9,12.8,30.26,NNE,18,5.0,12.0,38,0.00,,---,0.00,VWS V14.01,2013-04-06 13:00:00,
2013-04-06 09:03:00,35.9,13.4,30.26,NE,53,5.0,8.0,39,0.00,,---,0.00,VWS V14.01,2013-04-06 13:03:00,
2013-04-06 09:08:00,35.8,11.5,30.27,NW,326,4.0,13.0,36,0.00,,---,0.00,VWS V14.01,2013-04-06 13:08:00,
2013-04-06 09:13:00,35.9,12.8,30.27,NNW,329,3.0,13.0,38,0.00,,---,0.00,VWS V14.01,2013-04-06 13:13:00,
2013-04-06 09:18:00,36.1,13.0,30.27,NNE,22,6.0,13.0,38,0.00,,---,0.00,VWS V14.01,2013-04-06 13:18:00,
2013-04-06 09:23:00,36.4,12.6,30.27,NNE,26,7.0,13.0,37,0.00,,---,0.00,VWS V14.01,2013-04-06 13:23:00,
2013-04-06 09:28:00,36.7,13.5,30.27,NE,36,5.0,13.0,38,0.00,,---,0.00,VWS V14.01,2013-04-06 13:28:00,
2013-04-06 09:30:00,36.9,11.8,30.27,North,355,3.0,13.0,35,0.00,,---,0.00,VWS V14.01,2013-04-06 13:30:00,
2013-04-06 09:33:00,36.8,11.7,30.28,North,4,4.0,10.0,35,0.00,,---,0.00,VWS V14.01,2013-04-06 13:33:00,
2013-04-06 09:38:00,36.9,11.8,30.28,NW,317,6.0,10.0,35,0.00,,---,0.00,VWS V14.01,2013-04-06 13:38:00,
2013-04-06 09:43:00,36.8,11.7,30.28,NW,314,3.0,11.0,35,0.00,,---,0.00,VWS V14.01,2013-04-06 13:43:00,
2013-04-06 09:48:00,36.8,11.1,30.28,NNE,33,6.0,14.0,34,0.00,,---,0.00,VWS V14.01,2013-04-06 13:48:00,
2013-04-06 09:53:00,36.9,11.2,30.29,NNE,32,3.0,6.0,34,0.00,,---,0.00,VWS V14.01,2013-04-06 13:53:00,
2013-04-06 09:58:00,37.0,11.2,30.29,NW,311,6.0,8.0,34,0.00,,---,0.00,VWS V14.01,2013-04-06 13:58:00,
2013-04-06 10:03:00,37.2,11.4,30.29,ENE,63,4.0,7.0,34,0.00,,---,0.00,VWS V14.01,2013-04-06 14:03:00,
2013-04-06 10:08:00,37.6,11.1,30.29,West,270,0.0,7.0,33,0.00,,---,0.00,VWS V14.01,2013-04-06 14:08:00,
2013-04-06 10:13:00,38.1,10.2,30.29,North,356,7.0,8.0,31,0.00,,---,0.00,VWS V14.01,2013-04-06 14:13:00,
2013-04-06 10:18:00,38.1,10.2,30.29,WNW,298,3.0,8.0,31,0.00,,---,0.00,VWS V14.01,2013-04-06 14:18:00,
2013-04-06 10:23:00,38.1,10.9,30.29,ENE,58,6.0,9.0,32,0.00,,---,0.00,VWS V14.01,2013-04-06 14:23:00,
2013-04-06 10:28:00,37.8,9.9,30.29,NE,36,6.0,14.0,31,0.00,,---,0.00,VWS V14.01,2013-04-06 14:28:00,
2013-04-06 10:33:00,37.9,8.5,30.30,North,354,3.0,10.0,29,0.00,,---,0.00,VWS V14.01,2013-04-06 14:33:00,
2013-04-06 10:38:00,38.1,7.9,30.30,NNE,26,6.0,10.0,28,0.00,,---,0.00,VWS V14.01,2013-04-06 14:38:00,
2013-04-06 10:43:00,38.8,9.3,30.30,NNE,25,3.0,12.0,29,0.00,,---,0.00,VWS V14.01,2013-04-06 14:43:00,
2013-04-06 10:48:00,39.1,9.5,30.30,West,274,5.0,12.0,29,0.00,,---,0.00,VWS V14.01,2013-04-06 14:48:00,
2013-04-06 10:53:00,39.1,7.9,30.30,NNE,16,2.0,12.0,27,0.00,,---,0.00,VWS V14.01,2013-04-06 14:53:00,
2013-04-06 10:58:00,39.1,7.1,30.30,West,265,4.0,12.0,26,0.00,,---,0.00,VWS V14.01,2013-04-06 14:58:00,
2013-04-06 11:03:00,39.7,7.6,30.30,WNW,283,5.0,7.0,26,0.00,,---,0.00,VWS V14.01,2013-04-06 15:03:00,
2013-04-06 11:08:00,39.9,6.9,30.30,NE,38,5.0,8.0,25,0.00,,---,0.00,VWS V14.01,2013-04-06 15:08:00,
2013-04-06 11:13:00,40.1,8.0,30.30,WNW,302,10.0,10.0,26,0.00,,---,0.00,VWS V14.01,2013-04-06 15:13:00,
2013-04-06 11:18:00,40.1,8.0,30.30,NNE,29,10.0,11.0,26,0.00,,---,0.00,VWS V14.01,2013-04-06 15:18:00,
2013-04-06 11:23:00,40.0,5.2,30.30,NNE,30,8.0,11.0,23,0.00,,---,0.00,VWS V14.01,2013-04-06 15:23:00,
2013-04-06 11:28:00,39.8,6.9,30.30,NE,34,4.0,15.0,25,0.00,,---,0.00,VWS V14.01,2013-04-06 15:28:00,
2013-04-06 11:33:00,40.2,8.9,30.30,NE,41,7.0,8.0,27,0.00,,---,0.00,VWS V14.01,2013-04-06 15:33:00,
2013-04-06 11:38:00,40.9,9.5,30.30,NW,325,6.0,8.0,27,0.00,,---,0.00,VWS V14.01,2013-04-06 15:38:00,
2013-04-06 11:43:00,41.0,6.1,30.30,NW,309,7.0,13.0,23,0.00,,---,0.00,VWS V14.01,2013-04-06 15:43:00,
2013-04-06 11:48:00,41.0,7.0,30.30,North,352,1.0,13.0,24,0.00,,---,0.00,VWS V14.01,2013-04-06 15:48:00,
2013-04-06 11:53:00,41.5,6.5,30.30,North,8,2.0,13.0,23,0.00,,---,0.00,VWS V14.01,2013-04-06 15:53:00,
2013-04-06 11:58:00,42.2,8.9,30.30,NNW,335,3.0,13.0,25,0.00,,---,0.00,VWS V14.01,2013-04-06 15:58:00,
2013-04-06 12:03:00,42.7,8.4,30.29,NNE,16,1.0,7.0,24,0.00,,---,0.00,VWS V14.01,2013-04-06 16:03:00,
2013-04-06 12:08:00,42.9,7.7,30.29,WNW,290,2.0,7.0,23,0.00,,---,0.00,VWS V14.01,2013-04-06 16:08:00,
2013-04-06 12:13:00,43.1,7.8,30.29,SSW,211,2.0,7.0,23,0.00,,---,0.00,VWS V14.01,2013-04-06 16:13:00,
2013-04-06 12:18:00,43.1,6.8,30.29,NNE,16,3.0,9.0,22,0.00,,---,0.00,VWS V14.01,2013-04-06 16:18:00,
2013-04-06 12:23:00,42.8,7.6,30.29,NE,38,3.0,11.0,23,0.00,,---,0.00,VWS V14.01,2013-04-06 16:23:00,
2013-04-06 12:28:00,42.7,8.4,30.29,NNW,339,2.0,11.0,24,0.00,,---,0.00,VWS V14.01,2013-04-06 16:28:00,
2013-04-06 12:33:00,43.3,8.0,30.29,North,3,4.0,7.0,23,0.00,,---,0.00,VWS V14.01,2013-04-06 16:33:00,
2013-04-06 12:38:00,43.5,7.2,30.29,West,276,2.0,8.0,22,0.00,,---,0.00,VWS V14.01,2013-04-06 16:38:00,
2013-04-06 12:43:00,43.7,7.4,30.29,West,280,3.0,8.0,22,0.00,,---,0.00,VWS V14.01,2013-04-06 16:43:00,
2013-04-06 12:48:00,43.6,6.2,30.29,NNE,24,10.0,10.0,21,0.00,,---,0.00,VWS V14.01,2013-04-06 16:48:00,
2013-04-06 12:53:00,44.1,7.7,30.28,North,349,4.0,10.0,22,0.00,,---,0.00,VWS V14.01,2013-04-06 16:53:00,
2013-04-06 12:58:00,44.1,5.6,30.28,WNW,291,4.0,10.0,20,0.00,,---,0.00,VWS V14.01,2013-04-06 16:58:00,
2013-04-06 13:03:00,43.9,8.5,30.28,WNW,293,2.0,7.0,23,0.00,,---,0.00,VWS V14.01,2013-04-06 17:03:00,
2013-04-06 13:08:00,44.2,6.8,30.28,SSW,210,0.0,7.0,21,0.00,,---,0.00,VWS V14.01,2013-04-06 17:08:00,
2013-04-06 13:13:00,44.9,7.3,30.28,WNW,300,3.0,8.0,21,0.00,,---,0.00,VWS V14.01,2013-04-06 17:13:00,
2013-04-06 13:18:00,44.9,7.3,30.28,NNE,32,4.0,9.0,21,0.00,,---,0.00,VWS V14.01,2013-04-06 17:18:00,
2013-04-06 13:23:00,45.4,7.8,30.28,WNW,302,3.0,11.0,21,0.00,,---,0.00,VWS V14.01,2013-04-06 17:23:00,
2013-04-06 13:28:00,45.5,6.8,30.28,NE,47,1.0,11.0,20,0.00,,---,0.00,VWS V14.01,2013-04-06 17:28:00,
2013-04-06 13:33:00,46.4,9.6,30.28,NE,34,5.0,5.0,22,0.00,,---,0.00,VWS V14.01,2013-04-06 17:33:00,
2013-04-06 13:38:00,46.3,6.3,30.28,NE,53,6.0,10.0,19,0.00,,---,0.00,VWS V14.01,2013-04-06 17:38:00,
2013-04-06 13:43:00,46.5,7.6,30.27,WSW,248,4.0,10.0,20,0.00,,---,0.00,VWS V14.01,2013-04-06 17:43:00,
2013-04-06 13:48:00,46.1,6.2,30.27,NNW,347,2.0,11.0,19,0.00,,---,0.00,VWS V14.01,2013-04-06 17:48:00,
2013-04-06 13:53:00,46.8,8.9,30.27,NNW,328,3.0,11.0,21,0.00,,---,0.00,VWS V14.01,2013-04-06 17:53:00,
2013-04-06 13:58:00,47.0,8.0,30.27,WNW,283,2.0,11.0,20,0.00,,---,0.00,VWS V14.01,2013-04-06 17:58:00,
2013-04-06 14:03:00,47.5,6.1,30.27,WNW,293,3.0,6.0,18,0.00,,---,0.00,VWS V14.01,2013-04-06 18:03:00,
2013-04-06 14:08:00,47.7,7.5,30.27,West,271,2.0,8.0,19,0.00,,---,0.00,VWS V14.01,2013-04-06 18:08:00,
2013-04-06 14:13:00,48.0,8.9,30.27,NNE,28,3.0,8.0,20,0.00,,---,0.00,VWS V14.01,2013-04-06 18:13:00,
2013-04-06 14:18:00,48.6,7.0,30.27,NW,308,3.0,8.0,18,0.00,,---,0.00,VWS V14.01,2013-04-06 18:18:00,
2013-04-06 14:23:00,48.4,6.9,30.27,SE,145,5.0,8.0,18,0.00,,---,0.00,VWS V14.01,2013-04-06 18:23:00,
2013-04-06 14:29:00,48.8,7.2,30.27,WNW,282,1.0,8.0,18,0.00,,---,0.00,VWS V14.01,2013-04-06 18:29:00,
2013-04-06 14:34:00,49.0,8.6,30.27,North,349,4.0,6.0,19,0.00,,---,0.00,VWS V14.01,2013-04-06 18:34:00,
2013-04-06 14:39:00,48.4,8.1,30.27,North,352,5.0,10.0,19,0.00,,---,0.00,VWS V14.01,2013-04-06 18:39:00,
2013-04-06 14:44:00,48.5,8.1,30.26,North,358,3.0,10.0,19,0.00,,---,0.00,VWS V14.01,2013-04-06 18:44:00,
2013-04-06 14:49:00,48.8,7.2,30.26,NE,39,2.0,10.0,18,0.00,,---,0.00,VWS V14.01,2013-04-06 18:49:00,
2013-04-06 14:54:00,48.8,9.5,30.26,NE,44,4.0,10.0,20,0.00,,---,0.00,VWS V14.01,2013-04-06 18:54:00,
2013-04-06 14:59:00,49.0,8.6,30.26,NW,320,2.0,10.0,19,0.00,,---,0.00,VWS V14.01,2013-04-06 18:59:00,
2013-04-06 15:04:00,49.3,7.6,30.26,West,264,2.0,7.0,18,0.00,,---,0.00,VWS V14.01,2013-04-06 19:04:00,
2013-04-06 15:09:00,49.1,6.2,30.26,West,271,6.0,8.0,17,0.00,,---,0.00,VWS V14.01,2013-04-06 19:09:00,
2013-04-06 15:14:00,49.7,10.3,30.25,WSW,246,2.0,8.0,20,0.00,,---,0.00,VWS V14.01,2013-04-06 19:14:00,
2013-04-06 15:19:00,50.6,8.7,30.25,WNW,298,4.0,8.0,18,0.00,,---,0.00,VWS V14.01,2013-04-06 19:19:00,
2013-04-06 15:24:00,50.1,5.7,30.25,WNW,301,7.0,12.0,16,0.00,,---,0.00,VWS V14.01,2013-04-06 19:24:00,
2013-04-06 15:29:00,49.9,6.8,30.25,NNW,327,5.0,12.0,17,0.00,,---,0.00,VWS V14.01,2013-04-06 19:29:00,
2013-04-06 15:34:00,50.0,6.9,30.25,WNW,300,2.0,7.0,17,0.00,,---,0.00,VWS V14.01,2013-04-06 19:34:00,
2013-04-06 15:39:00,50.2,7.1,30.25,North,352,3.0,7.0,17,0.00,,---,0.00,VWS V14.01,2013-04-06 19:39:00,
2013-04-06 15:44:00,50.4,10.9,30.25,West,264,5.0,8.0,20,0.00,,---,0.00,VWS V14.01,2013-04-06 19:44:00,
2013-04-06 15:50:00,50.8,7.6,30.25,WNW,282,4.0,8.0,17,0.00,,---,0.00,VWS V14.01,2013-04-06 19:50:00,
2013-04-06 15:55:00,50.6,6.1,30.25,NE,43,1.0,8.0,16,0.00,,---,0.00,VWS V14.01,2013-04-06 19:55:00,
2013-04-06 16:00:00,51.2,7.9,30.25,NW,326,3.0,8.0,17,0.00,,---,0.00,VWS V14.01,2013-04-06 20:00:00,
2013-04-06 16:05:00,51.4,8.1,30.25,West,261,2.0,5.0,17,0.00,,---,0.00,VWS V14.01,2013-04-06 20:05:00,
2013-04-06 16:10:00,51.3,6.7,30.25,WSW,256,2.0,6.0,16,0.00,,---,0.00,VWS V14.01,2013-04-06 20:10:00,
2013-04-06 16:15:00,51.3,8.0,30.25,NW,322,2.0,7.0,17,0.00,,---,0.00,VWS V14.01,2013-04-06 20:15:00,
2013-04-06 16:20:00,51.3,6.7,30.25,West,276,3.0,11.0,16,0.00,,---,0.00,VWS V14.01,2013-04-06 20:20:00,
2013-04-06 16:25:00,51.1,5.1,30.25,WSW,258,0.0,11.0,15,0.00,,---,0.00,VWS V14.01,2013-04-06 20:25:00,
2013-04-06 16:30:00,51.6,5.5,30.25,NW,322,2.0,11.0,15,0.00,,---,0.00,VWS V14.01,2013-04-06 20:30:00,
2013-04-06 16:35:00,51.4,6.7,30.25,NNW,333,3.0,7.0,16,0.00,,---,0.00,VWS V14.01,2013-04-06 20:35:00,
2013-04-06 16:40:00,51.2,6.6,30.25,NNE,13,3.0,8.0,16,0.00,,---,0.00,VWS V14.01,2013-04-06 20:40:00,
2013-04-06 16:45:00,51.3,6.7,30.25,NNE,23,4.0,8.0,16,0.00,,---,0.00,VWS V14.01,2013-04-06 20:45:00,
2013-04-06 16:50:00,51.4,5.3,30.25,NW,317,2.0,8.0,15,0.00,,---,0.00,VWS V14.01,2013-04-06 20:50:00,
2013-04-06 16:55:00,51.4,8.1,30.25,WNW,300,1.0,8.0,17,0.00,,---,0.00,VWS V14.01,2013-04-06 20:55:00,
2013-04-06 17:00:00,52.1,9.9,30.25,SSE,163,0.0,8.0,18,0.00,,---,0.00,VWS V14.01,2013-04-06 21:00:00,
2013-04-06 17:05:00,52.9,7.9,30.25,WSW,256,1.0,8.0,16,0.00,,---,0.00,VWS V14.01,2013-04-06 21:05:00,
2013-04-06 17:10:00,52.6,7.7,30.25,West,266,3.0,8.0,16,0.00,,---,0.00,VWS V14.01,2013-04-06 21:10:00,
2013-04-06 17:15:00,52.5,7.6,30.26,SSE,150,1.0,8.0,16,0.00,,---,0.00,VWS V14.01,2013-04-06 21:15:00,
2013-04-06 17:20:00,52.9,6.5,30.26,SSE,160,0.0,8.0,15,0.00,,---,0.00,VWS V14.01,2013-04-06 21:20:00,
2013-04-06 17:25:00,53.4,6.9,30.26,West,276,2.0,8.0,15,0.00,,---,0.00,VWS V14.01,2013-04-06 21:25:00,
2013-04-06 17:30:00,52.8,9.2,30.26,West,266,1.0,8.0,17,0.00,,---,0.00,VWS V14.01,2013-04-06 21:30:00,
2013-04-06 17:35:00,53.0,8.0,30.26,WNW,283,3.0,3.0,16,0.00,,---,0.00,VWS V14.01,2013-04-06 21:35:00,
2013-04-06 17:40:00,52.9,6.5,30.26,NW,315,2.0,3.0,15,0.00,,---,0.00,VWS V14.01,2013-04-06 21:40:00,
2013-04-06 17:45:00,52.4,6.1,30.26,NE,43,0.0,3.0,15,0.00,,---,0.00,VWS V14.01,2013-04-06 21:45:00,
2013-04-06 17:50:00,52.8,7.9,30.26,WNW,284,1.0,4.0,16,0.00,,---,0.00,VWS V14.01,2013-04-06 21:50:00,
2013-04-06 17:55:00,53.4,6.9,30.26,WSW,255,4.0,7.0,15,0.00,,---,0.00,VWS V14.01,2013-04-06 21:55:00,
2013-04-06 18:00:00,53.1,8.1,30.27,West,280,4.0,8.0,16,0.00,,---,0.00,VWS V14.01,2013-04-06 22:00:00,
2013-04-06 18:05:00,53.1,9.4,30.27,West,274,2.0,5.0,17,0.00,,---,0.00,VWS V14.01,2013-04-06 22:05:00,
2013-04-06 18:10:00,53.1,6.7,30.27,West,264,3.0,5.0,15,0.00,,---,0.00,VWS V14.01,2013-04-06 22:10:00,
2013-04-06 18:15:00,52.6,7.7,30.27,West,268,3.0,5.0,16,0.00,,---,0.00,VWS V14.01,2013-04-06 22:15:00,
2013-04-06 18:20:00,52.8,7.9,30.27,WNW,295,0.0,5.0,16,0.00,,---,0.00,VWS V14.01,2013-04-06 22:20:00,
2013-04-06 18:25:00,52.3,7.5,30.27,NE,37,0.0,5.0,16,0.00,,---,0.00,VWS V14.01,2013-04-06 22:25:00,
2013-04-06 18:30:00,52.6,10.3,30.27,West,269,1.0,5.0,18,0.00,,---,0.00,VWS V14.01,2013-04-06 22:30:00,
2013-04-06 18:35:00,52.6,7.7,30.27,SE,141,1.0,2.0,16,0.00,,---,0.00,VWS V14.01,2013-04-06 22:35:00,
2013-04-06 18:40:00,52.5,10.2,30.27,SE,138,5.0,5.0,18,0.00,,---,0.00,VWS V14.01,2013-04-06 22:40:00,
2013-04-06 18:45:00,52.1,8.6,30.27,NW,316,0.0,5.0,17,0.00,,---,0.00,VWS V14.01,2013-04-06 22:45:00,
2013-04-06 18:50:00,51.8,9.7,30.27,SSE,166,0.0,5.0,18,0.00,,---,0.00,VWS V14.01,2013-04-06 22:50:00,
2013-04-06 18:55:00,51.4,8.1,30.27,SE,127,0.0,5.0,17,0.00,,---,0.00,VWS V14.01,2013-04-06 22:55:00,
2013-04-06 19:00:00,51.1,9.1,30.27,SE,127,0.0,5.0,18,0.00,,---,0.00,VWS V14.01,2013-04-06 23:00:00,
2013-04-06 19:05:00,50.7,8.8,30.27,SE,139,0.0,1.0,18,0.00,,---,0.00,VWS V14.01,2013-04-06 23:05:00,
2013-04-06 19:10:00,50.3,8.4,30.27,SE,142,0.0,1.0,18,0.00,,---,0.00,VWS V14.01,2013-04-06 23:10:00,
2013-04-06 19:15:00,49.9,9.3,30.27,SE,142,0.0,1.0,19,0.00,,---,0.00,VWS V14.01,2013-04-06 23:15:00,
2013-04-06 19:20:00,49.4,10.0,30.27,SE,142,0.0,1.0,20,0.00,,---,0.00,VWS V14.01,2013-04-06 23:20:00,
2013-04-06 19:25:00,48.7,15.4,30.27,SE,142,0.0,1.0,26,0.00,,---,0.00,VWS V14.01,2013-04-06 23:25:00,
2013-04-06 19:30:00,48.1,17.4,30.27,SE,142,0.0,1.0,29,0.00,,---,0.00,VWS V14.01,2013-04-06 23:30:00,
2013-04-06 19:35:00,47.6,14.4,30.27,SE,141,0.0,0.0,26,0.00,,---,0.00,VWS V14.01,2013-04-06 23:35:00,
2013-04-06 19:40:00,47.5,16.8,30.28,SE,137,1.0,3.0,29,0.00,,---,0.00,VWS V14.01,2013-04-06 23:40:00,
2013-04-06 19:45:00,47.3,20.4,30.28,SSE,162,0.0,4.0,34,0.00,,---,0.00,VWS V14.01,2013-04-06 23:45:00,
2013-04-06 19:50:00,47.0,20.8,30.28,SW,228,0.0,4.0,35,0.00,,---,0.00,VWS V14.01,2013-04-06 23:50:00,
2013-04-06 19:55:00,46.6,21.7,30.28,SW,228,0.0,4.0,37,0.00,,---,0.00,VWS V14.01,2013-04-06 23:55:00,
2013-04-06 20:00:00,46.1,22.5,30.28,SW,228,0.0,4.0,39,0.00,,---,0.00,VWS V14.01,2013-04-07 00:00:00,
2013-04-06 20:05:00,45.7,23.4,30.29,SE,142,1.0,2.0,41,0.00,,---,0.00,VWS V14.01,2013-04-07 00:05:00,
2013-04-06 20:10:00,45.4,23.7,30.29,NE,36,0.0,3.0,42,0.00,,---,0.00,VWS V14.01,2013-04-07 00:10:00,
2013-04-06 20:15:00,45.1,24.5,30.29,NE,36,0.0,3.0,44,0.00,,---,0.00,VWS V14.01,2013-04-07 00:15:00,
2013-04-06 20:20:00,44.8,24.8,30.29,NE,36,0.0,3.0,45,0.00,,---,0.00,VWS V14.01,2013-04-07 00:20:00,
2013-04-06 20:25:00,44.6,25.1,30.30,NE,36,0.0,3.0,46,0.00,,---,0.00,VWS V14.01,2013-04-07 00:25:00,
2013-04-06 20:30:00,44.3,25.4,30.29,NE,36,0.0,3.0,47,0.00,,---,0.00,VWS V14.01,2013-04-07 00:30:00,
2013-04-06 20:35:00,44.0,26.1,30.30,NE,36,0.0,0.0,49,0.00,,---,0.00,VWS V14.01,2013-04-07 00:35:00,
2013-04-06 20:40:00,43.6,25.2,30.29,NE,36,0.0,0.0,48,0.00,,---,0.00,VWS V14.01,2013-04-07 00:40:00,
2013-04-06 20:45:00,43.3,24.9,30.30,NE,36,0.0,0.0,48,0.00,,---,0.00,VWS V14.01,2013-04-07 00:45:00,
2013-04-06 20:50:00,43.2,25.4,30.30,NE,36,0.0,0.0,49,0.00,,---,0.00,VWS V14.01,2013-04-07 00:50:00,
2013-04-06 20:55:00,43.2,25.8,30.30,NE,36,0.0,0.0,50,0.00,,---,0.00,VWS V14.01,2013-04-07 00:55:00,
2013-04-06 21:00:00,42.9,26.5,30.30,NE,36,0.0,0.0,52,0.00,,---,0.00,VWS V14.01,2013-04-07 01:00:00,
2013-04-06 21:05:00,42.7,26.3,30.30,NE,36,0.0,0.0,52,0.00,,---,0.00,VWS V14.01,2013-04-07 01:05:00,
2013-04-06 21:10:00,42.5,26.6,30.30,NE,36,0.0,0.0,53,0.00,,---,0.00,VWS V14.01,2013-04-07 01:10:00,
2013-04-06 21:15:00,42.4,27.0,30.30,NE,36,0.0,0.0,54,0.00,,---,0.00,VWS V14.01,2013-04-07 01:15:00,
2013-04-06 21:20:00,42.2,26.8,30.31,NE,36,0.0,0.0,54,0.00,,---,0.00,VWS V14.01,2013-04-07 01:20:00,
2013-04-06 21:25:00,42.2,26.8,30.31,NE,36,0.0,0.0,54,0.00,,---,0.00,VWS V14.01,2013-04-07 01:25:00,
2013-04-06 21:30:00,41.9,26.5,30.31,NE,36,0.0,0.0,54,0.00,,---,0.00,VWS V14.01,2013-04-07 01:30:00,
2013-04-06 21:35:00,41.6,26.2,30.31,NE,36,0.0,0.0,54,0.00,,---,0.00,VWS V14.01,2013-04-07 01:35:00,
2013-04-06 21:41:00,41.3,27.2,30.31,NE,36,0.0,0.0,57,0.00,,---,0.00,VWS V14.01,2013-04-07 01:41:00,
2013-04-06 21:46:00,40.9,26.9,30.31,NE,36,0.0,0.0,57,0.00,,---,0.00,VWS V14.01,2013-04-07 01:46:00,
2013-04-06 21:51:00,40.6,26.6,30.31,NE,36,0.0,0.0,57,0.00,,---,0.00,VWS V14.01,2013-04-07 01:51:00,
2013-04-06 21:56:00,40.3,27.1,30.31,NE,36,0.0,0.0,59,0.00,,---,0.00,VWS V14.01,2013-04-07 01:56:00,
2013-04-06 22:01:00,40.1,26.9,30.31,NE,36,0.0,0.0,59,0.00,,---,0.00,VWS V14.01,2013-04-07 02:01:00,
2013-04-06 22:06:00,39.9,26.3,30.31,NE,36,0.0,0.0,58,0.00,,---,0.00,VWS V14.01,2013-04-07 02:06:00,
2013-04-06 22:11:00,39.6,26.9,30.31,NE,36,0.0,0.0,60,0.00,,---,0.00,VWS V14.01,2013-04-07 02:11:00,
2013-04-06 22:16:00,39.4,27.5,30.31,NE,36,0.0,0.0,62,0.00,,---,0.00,VWS V14.01,2013-04-07 02:16:00,
2013-04-06 22:21:00,39.2,26.9,30.31,NE,36,0.0,0.0,61,0.00,,---,0.00,VWS V14.01,2013-04-07 02:21:00,
2013-04-06 22:27:00,38.9,27.4,30.31,NE,36,0.0,0.0,63,0.00,,---,0.00,VWS V14.01,2013-04-07 02:27:00,
2013-04-06 22:32:00,38.8,26.9,30.31,NE,36,0.0,0.0,62,0.00,,---,0.00,VWS V14.01,2013-04-07 02:32:00,
2013-04-06 22:37:00,38.6,27.5,30.31,NE,36,0.0,0.0,64,0.00,,---,0.00,VWS V14.01,2013-04-07 02:37:00,
2013-04-06 22:42:00,38.4,27.3,30.31,NE,36,0.0,0.0,64,0.00,,---,0.00,VWS V14.01,2013-04-07 02:42:00,
2013-04-06 22:47:00,38.3,27.6,30.31,NE,36,0.0,0.0,65,0.00,,---,0.00,VWS V14.01,2013-04-07 02:47:00,
2013-04-06 22:52:00,38.2,27.9,30.31,NE,36,0.0,0.0,66,0.00,,---,0.00,VWS V14.01,2013-04-07 02:52:00,
2013-04-06 22:57:00,38.0,27.7,30.31,NE,36,0.0,0.0,66,0.00,,---,0.00,VWS V14.01,2013-04-07 02:57:00,
2013-04-06 23:02:00,37.8,27.1,30.31,NE,36,0.0,0.0,65,0.00,,---,0.00,VWS V14.01,2013-04-07 03:02:00,
2013-04-06 23:07:00,37.6,26.9,30.31,NE,36,0.0,1.0,65,0.00,,---,0.00,VWS V14.01,2013-04-07 03:07:00,
2013-04-06 23:12:00,37.5,27.5,30.31,NE,34,2.0,2.0,67,0.00,,---,0.00,VWS V14.01,2013-04-07 03:12:00,
2013-04-06 23:17:00,37.5,27.9,30.31,NE,34,1.0,2.0,68,0.00,,---,0.00,VWS V14.01,2013-04-07 03:17:00,
2013-04-06 23:22:00,37.3,27.4,30.31,NE,34,0.0,2.0,67,0.00,,---,0.00,VWS V14.01,2013-04-07 03:22:00,
2013-04-06 23:27:00,37.1,26.8,30.31,NE,34,0.0,2.0,66,0.00,,---,0.00,VWS V14.01,2013-04-07 03:27:00,
2013-04-06 23:32:00,36.8,26.9,30.31,NE,34,0.0,1.0,67,0.00,,---,0.00,VWS V14.01,2013-04-07 03:32:00,
2013-04-06 23:37:00,36.5,27.3,30.31,NE,34,1.0,1.0,69,0.00,,---,0.00,VWS V14.01,2013-04-07 03:37:00,
2013-04-06 23:42:00,36.4,28.2,30.31,NE,36,2.0,2.0,72,0.00,,---,0.00,VWS V14.01,2013-04-07 03:42:00,
2013-04-06 23:47:00,36.2,27.7,30.31,NE,36,1.0,2.0,71,0.00,,---,0.00,VWS V14.01,2013-04-07 03:47:00,
2013-04-06 23:52:00,36.1,28.0,30.31,NE,36,0.0,2.0,72,0.00,,---,0.00,VWS V14.01,2013-04-07 03:52:00,
2013-04-06 23:57:00,36.0,27.9,30.31,NE,36,0.0,2.0,72,0.00,,---,0.00,VWS V14.01,2013-04-07 03:57:00,